Location: Newark
(48.1500°N, 2.9667°W)
Time: 13:21:06
(UTC+00:00)

Courier 1B Rocket - All Passes

Search period start: 17 January 2020 00:00
Search period end: 27 January 2020 00:00
Orbit: 920 x 1202 km, 28.2° (Epoch: 16 January)

Date Brightness Start Highest point End Pass type
(mag) Time Alt. Az. Time Alt. Az. Time Alt. Az.
17 Jan - 17:07:47 10° SSW 17:09:34 11° S 17:11:20 10° SSE daylight
18 Jan - 16:07:13 10° SSW 16:09:00 11° S 16:10:45 10° SSE daylight
19 Jan - 15:07:07 10° S 15:08:25 11° S 15:09:42 10° SSE daylight
19 Jan - 16:59:12 10° SSW 17:00:24 11° S 17:01:36 10° S daylight
20 Jan - 15:57:53 10° SSW 15:59:50 11° S 16:01:46 10° SSE daylight
21 Jan - 14:57:05 10° SSW 14:59:15 12° S 15:01:23 10° SSE daylight
22 Jan - 13:56:39 10° SSW 13:58:39 11° S 14:00:37 10° SSE daylight
22 Jan - 15:49:07 10° SSW 15:50:40 11° S 15:52:13 10° S daylight
23 Jan - 12:56:50 10° S 12:58:02 10° S 12:59:12 10° SSE daylight
23 Jan - 14:47:41 10° SSW 14:50:05 12° S 14:52:26 10° SSE daylight
24 Jan - 13:46:44 10° SSW 13:49:28 13° S 13:52:08 10° SSE daylight
25 Jan - 12:46:07 10° SSW 12:48:49 12° S 12:51:28 10° SSE daylight
25 Jan - 14:38:45 10° SSW 14:40:53 12° S 14:43:00 10° S daylight
26 Jan - 11:45:53 10° S 11:48:09 12° S 11:50:23 10° SSE daylight
26 Jan - 13:37:20 10° SSW 13:40:16 13° S 13:43:08 10° SSE daylight
